Honolulu, HI

8:29 AM HST on July 23, 2016 (GMT -1000)
Honolulu International

Weather History for PHNL - February, 2013

Change the Weather History Date:

Saturday, February 2, 2013

  Actual Average Record
Temperature  
Mean Temperature 75 °F 73 °F  
Max Temperature 81 °F 80 °F 84 °F (1962)
Min Temperature 69 °F 66 °F 53 °F (1976)
Degree Days  
Heating Degree Days 0 0  
Month to date heating degree days 0 0  
Since 1 July heating degree days 0 0  
Cooling Degree Days 10 8  
Month to date cooling degree days 20 16  
Year to date cooling degree days 239 270  
Growing Degree Days 26 (Base 50)    
Moisture  
Dew Point 59 °F    
Average Humidity 57    
Maximum Humidity 68    
Minimum Humidity 45    
Precipitation  
Precipitation 0.00 in 0.07 in 2.10 in (1989)
Month to date precipitation 0.00 0.14  
Year to date precipitation 2.42 2.45  
Snow  
Snow 0.00 in - - ()
Month to date snowfall 0.0  
Since 1 July snowfall 0.0  
Snow Depth 0.00 in    
Sea Level Pressure  
Sea Level Pressure 30.11 in    
Wind  
Wind Speed 12 mph (ENE)    
Max Wind Speed 21 mph    
Max Gust Speed 29 mph    
Visibility 10 miles    
Events      
T = Trace of Precipitation, MM = Missing Value Source: NWS Daily Summary

Daily Weather History Graph

Daily Weather History Graph

Search for Another Location

Airport or City:

Trip Planner

Search our weather history database for the weather conditions in past years. The results will help you decide how hot, cold, wet, or windy it might be!

Date:

Astronomy

Feb. 02, 2013 Rise Set
Actual Time 7:08 AM HST 6:22 PM HST
Civil Twilight 6:45 AM HST 6:45 PM HST
Nautical Twilight 6:18 AM HST 7:12 PM HST
Astronomical Twilight 5:52 AM HST 7:38 PM HST
Moon No Moon Rise 11:25 AM HST (2/2)
Length of Visible Light 12h 00m
Length of Day
11h 14m
Waning Gibbous, 57% of the Moon is Illuminated
Feb 2
Waning Gibbous
Feb 3
Last Quarter
Feb 9
New
Feb 17
First Quarter
Feb 25
Full

Hourly Weather History & Observations

Time (HST) Temp. Heat Index Dew Point Humidity Pressure Visibility Wind Dir Wind Speed Gust Speed Precip Events Conditions
12:53 AM 73.0 °F - 59.0 °F 61% 30.09 in 10.0 mi East 15.0 mph - N/A   Partly Cloudy
1:53 AM 73.0 °F - 59.0 °F 61% 30.07 in 10.0 mi ENE 16.1 mph - N/A   Partly Cloudy
2:53 AM 73.0 °F - 60.1 °F 64% 30.06 in 10.0 mi ENE 12.7 mph - N/A   Partly Cloudy
3:53 AM 72.0 °F - 61.0 °F 68% 30.07 in 10.0 mi ENE 10.4 mph - N/A   Clear
4:53 AM 72.0 °F - 60.1 °F 66% 30.08 in 10.0 mi NE 12.7 mph - N/A   Partly Cloudy
5:53 AM 72.0 °F - 60.1 °F 66% 30.09 in 10.0 mi ENE 9.2 mph - N/A   Partly Cloudy
6:53 AM 72.0 °F - 61.0 °F 68% 30.11 in 10.0 mi ENE 10.4 mph - N/A   Partly Cloudy
7:53 AM 73.0 °F - 62.1 °F 68% 30.13 in 10.0 mi ENE 15.0 mph - N/A   Scattered Clouds
8:53 AM 75.0 °F - 61.0 °F 62% 30.14 in 10.0 mi ENE 12.7 mph 20.7 mph N/A   Scattered Clouds
9:53 AM 77.0 °F - 60.1 °F 56% 30.16 in 10.0 mi ENE 18.4 mph 21.9 mph N/A   Scattered Clouds
10:53 AM 78.1 °F - 59.0 °F 52% 30.16 in 10.0 mi ENE 16.1 mph 23.0 mph N/A   Scattered Clouds
11:53 AM 80.1 °F 80.6 °F 57.9 °F 47% 30.14 in 10.0 mi NE 17.3 mph 28.8 mph N/A   Scattered Clouds
12:53 PM 81.0 °F 81.1 °F 57.9 °F 45% 30.12 in 10.0 mi ENE 16.1 mph 23.0 mph N/A   Scattered Clouds
1:53 PM 81.0 °F 81.0 °F 57.0 °F 44% 30.09 in 10.0 mi ENE 15.0 mph - N/A   Scattered Clouds
2:53 PM 80.1 °F 80.6 °F 57.9 °F 47% 30.08 in 10.0 mi ENE 17.3 mph 23.0 mph N/A   Scattered Clouds
3:53 PM 80.1 °F 80.7 °F 59.0 °F 48% 30.07 in 10.0 mi ENE 15.0 mph - N/A   Scattered Clouds
4:53 PM 78.1 °F - 59.0 °F 52% 30.09 in 10.0 mi NE 11.5 mph - N/A   Scattered Clouds
5:53 PM 75.9 °F - 59.0 °F 56% 30.10 in 10.0 mi NE 10.4 mph - N/A   Scattered Clouds
6:53 PM 73.0 °F - 59.0 °F 61% 30.11 in 10.0 mi ENE 9.2 mph - N/A   Scattered Clouds
7:53 PM 73.0 °F - 59.0 °F 61% 30.12 in 10.0 mi NE 10.4 mph 17.3 mph N/A   Partly Cloudy
8:53 PM 72.0 °F - 57.9 °F 61% 30.14 in 10.0 mi NE 4.6 mph - N/A   Partly Cloudy
9:53 PM 71.1 °F - 57.9 °F 63% 30.14 in 10.0 mi Calm Calm - N/A   Partly Cloudy
10:53 PM 70.0 °F - 57.9 °F 65% 30.15 in 10.0 mi Calm Calm - N/A   Partly Cloudy
11:53 PM 69.1 °F - 57.9 °F 68% 30.14 in 10.0 mi Calm Calm - N/A   Partly Cloudy